User: anonymous   Login
Location: Young's Pond
(41.2695°N, 72.7766°W)
Time: 11:13:59
(UTC-04:00)
Language:

Spot 4 - Orbit

View from above orbital plane
View from above orbital plane
View from above satellite
View from above satellite

Ground track
Ground track

The orbit data is extracted from the following two-line orbital elements,

1 25260U 98017A   14297.79473737  .00000494  00000-0  13076-3 0  4767
2 25260 098.4468 002.7310 0012850 004.4852 355.6457 14.53059513861475
Epoch (UTC): 24 October 2014 19:04:25
Eccentricity: 0.0012850
inclination: 98.4468°
perigee height: 706 km
apogee height: 725 km
right ascension of ascending node: 2.7310°
argument of perigee: 4.4852°
revolutions per day: 14.53059513
mean anomaly at epoch: 355.6457°
orbit number at epoch: 86147

The dashed part of the orbit path shows where the satellite is in the earth's shadow,  

DLR